User: anonymous
Location: Granada
(37.1830°N, 3.6000°W)
Time: 12:41:26
(UTC+02:00)
Language:

Iridium 70 - Orbit

View from above orbital plane
View from above orbital plane
View from above satellite
View from above satellite

Ground track
Ground track

The orbit data is extracted from the following two-line orbital elements,

1 25342U 98032A   14209.38541117  .00000342  00000-0  11519-3 0  8903
2 25342 086.3987 305.0883 0002259 113.5284 289.2492 14.34216173847915
Epoch (UTC): 28 July 2014 09:14:59
Eccentricity: 0.0002259
inclination: 86.3987°
perigee height: 776 km
apogee height: 779 km
right ascension of ascending node: 305.0883°
argument of perigee: 113.5284°
revolutions per day: 14.34216173
mean anomaly at epoch: 289.2492°
orbit number at epoch: 84791

The dashed part of the orbit path shows where the satellite is in the earth's shadow,  

DLR